When you browse on this site, cookies collect data to enhance your experience and personalize the content and advertising you see.
Visit our Privacy Policy to learn more. By continuing to use the site, you agree to this use of cookies and data.
  • In Romania
  • List of Countries
  • For 7 days
  • Water Temperature
  • Satellite Maps
  • Weather Map
  • Weather Widgets
  • user-avatar
    Login

    Hourly Weather Innsbruck

    Today, 16 December, Sunday

    Time Temperature Precipitation Wind Pressure Humidity
    00:00 -13°C° 0 mm 1 mps 589 mmHg 56%
    01:00 -13°C° 0 mm 1 mps 589 mmHg 53%
    02:00 -14°C° 0 mm 2 mps 589 mmHg 54%
    03:00 -13°C° 0 mm 2 mps 589 mmHg 55%
    04:00 -12°C° 0 mm 2 mps 590 mmHg 56%
    05:00 -10°C° 0.2 mm 2 mps 590 mmHg 62%
    06:00 -10°C° 0.2 mm 2 mps 590 mmHg 68%
    07:00 -9°C° 0.2 mm 2 mps 590 mmHg 75%
    08:00 -8°C° 0.3 mm 2 mps 590 mmHg 76%
    09:00 -7°C° 0.3 mm 2 mps 590 mmHg 77%
    10:00 -6°C° 0.3 mm 2 mps 591 mmHg 78%
    11:00 -4°C° 0.2 mm 1 mps 591 mmHg 79%
    12:00 -3°C° 0.2 mm 1 mps 591 mmHg 80%
    13:00 -2°C° 0.2 mm 1 mps 591 mmHg 81%
    14:00 -2°C° 0.2 mm 1 mps 591 mmHg 83%
    15:00 -3°C° 0.2 mm 1 mps 591 mmHg 86%
    16:00 -5°C° 0.2 mm 0 mps 591 mmHg 88%
    17:00 -5°C° 0.3 mm 0 mps 591 mmHg 88%
    18:00 -5°C° 0.3 mm 0 mps 591 mmHg 89%
    19:00 -6°C° 0.3 mm 0 mps 591 mmHg 90%
    20:00 -6°C° 0.5 mm 0 mps 591 mmHg 90%
    21:00 -6°C° 0.5 mm 1 mps 591 mmHg 91%
    22:00 -6°C° 0.5 mm 1 mps 591 mmHg 92%
    23:00 -6°C° 0.4 mm 1 mps 591 mmHg 92%

    Tomorrow, 17 December, Monday

    Time Temperature Precipitation Wind Pressure Humidity
    00:00 -6°C° 0.4 mm 1 mps 591 mmHg 93%
    01:00 -6°C° 0.4 mm 1 mps 591 mmHg 93%
    02:00 -6°C° 0.1 mm 1 mps 591 mmHg 93%
    03:00 -7°C° 0.1 mm 1 mps 591 mmHg 93%
    04:00 -7°C° 0.1 mm 1 mps 591 mmHg 92%
    05:00 -8°C° 0 mm 1 mps 591 mmHg 92%
    06:00 -8°C° 0 mm 1 mps 591 mmHg 92%
    07:00 -9°C° 0 mm 1 mps 591 mmHg 92%
    08:00 -9°C° 0 mm 2 mps 592 mmHg 90%
    09:00 -8°C° 0 mm 2 mps 592 mmHg 89%
    10:00 -8°C° 0 mm 2 mps 593 mmHg 88%
    11:00 -7°C° 0 mm 2 mps 594 mmHg 86%
    12:00 -6°C° 0 mm 2 mps 594 mmHg 84%
    13:00 -5°C° 0 mm 2 mps 594 mmHg 83%
    14:00 -6°C° 0 mm 2 mps 595 mmHg 85%
    15:00 -6°C° 0 mm 2 mps 595 mmHg 88%
    16:00 -7°C° 0 mm 2 mps 595 mmHg 90%
    17:00 -8°C° 0.1 mm 2 mps 595 mmHg 90%
    18:00 -9°C° 0.1 mm 2 mps 595 mmHg 90%
    19:00 -9°C° 0.1 mm 2 mps 596 mmHg 91%
    20:00 -10°C° 0 mm 2 mps 596 mmHg 90%
    21:00 -10°C° 0 mm 2 mps 596 mmHg 90%
    22:00 -10°C° 0 mm 2 mps 596 mmHg 90%
    23:00 -10°C° 0 mm 1 mps 596 mmHg 89%

    Day after tomorrow, 18 December, Tuesday

    Time Temperature Precipitation Wind Pressure Humidity
    00:00 -10°C° 0 mm 1 mps 596 mmHg 89%
    01:00 -10°C° 0 mm 1 mps 596 mmHg 88%
    02:00 -10°C° 0 mm 1 mps 596 mmHg 87%
    03:00 -11°C° 0 mm 1 mps 596 mmHg 86%
    04:00 -11°C° 0 mm 1 mps 596 mmHg 84%
    05:00 -11°C° 0 mm 1 mps 596 mmHg 82%
    06:00 -11°C° 0 mm 1 mps 596 mmHg 79%
    07:00 -11°C° 0 mm 1 mps 596 mmHg 76%
    08:00 -10°C° 0 mm 1 mps 596 mmHg 74%
    09:00 -8°C° 0 mm 1 mps 597 mmHg 71%
    10:00 -7°C° 0 mm 1 mps 597 mmHg 69%
    11:00 -6°C° 0 mm 2 mps 598 mmHg 69%
    12:00 -5°C° 0 mm 2 mps 598 mmHg 70%
    13:00 -3°C° 0 mm 2 mps 598 mmHg 70%
    14:00 -5°C° 0 mm 2 mps 597 mmHg 70%
    15:00 -6°C° 0 mm 2 mps 597 mmHg 71%
    16:00 -7°C° 0 mm 2 mps 596 mmHg 71%
    17:00 -8°C° 0 mm 2 mps 595 mmHg 68%
    18:00 -9°C° 0 mm 2 mps 595 mmHg 65%
    19:00 -10°C° 0 mm 2 mps 595 mmHg 62%
    20:00 -10°C° 0 mm 2 mps 594 mmHg 60%
    21:00 -12°C° 0 mm 3 mps 594 mmHg 58%
    22:00 -12°C° 0 mm 3 mps 594 mmHg 56%
    23:00 -9°C° 0 mm 2 mps 594 mmHg 55%

    19 December, Wednesday

    Time Temperature Precipitation Wind Pressure Humidity
    00:00 -9°C° 0 mm 2 mps 594 mmHg 54%
    01:00 -9°C° 0 mm 2 mps 594 mmHg 53%
    02:00 -9°C° 0 mm 2 mps 594 mmHg 52%
    03:00 -9°C° 0 mm 2 mps 593 mmHg 51%
    04:00 -8°C° 0 mm 2 mps 593 mmHg 50%
    05:00 -8°C° 0 mm 2 mps 593 mmHg 50%
    06:00 -8°C° 0 mm 2 mps 593 mmHg 50%
    07:00 -8°C° 0 mm 2 mps 593 mmHg 49%
    08:00 -7°C° 0 mm 2 mps 594 mmHg 52%
    09:00 -6°C° 0 mm 2 mps 594 mmHg 55%
    10:00 -3°C° 0 mm 1 mps 594 mmHg 58%
    11:00 -2°C° 0 mm 1 mps 594 mmHg 60%
    12:00 -2°C° 0 mm 1 mps 594 mmHg 63%
    13:00 -1°C° 0 mm 1 mps 594 mmHg 65%
    14:00 -4°C° 0 mm 2 mps 593 mmHg 67%
    15:00 -5°C° 0 mm 2 mps 593 mmHg 69%
    16:00 -6°C° 0 mm 2 mps 592 mmHg 72%
    17:00 -6°C° 0 mm 2 mps 592 mmHg 73%
    18:00 -7°C° 0 mm 2 mps 592 mmHg 75%
    19:00 -8°C° 0 mm 2 mps 591 mmHg 77%
    20:00 -8°C° 0 mm 2 mps 592 mmHg 80%
    21:00 -8°C° 0 mm 2 mps 592 mmHg 82%
    22:00 -8°C° 0 mm 2 mps 592 mmHg 85%
    23:00 -8°C° 0.1 mm 2 mps 591 mmHg 87%

    20 December, Thursday

    Time Temperature Precipitation Wind Pressure Humidity
    00:00 -8°C° 0.1 mm 2 mps 591 mmHg 88%
    01:00 -8°C° 0.1 mm 2 mps 591 mmHg 90%
    02:00 -8°C° 0.5 mm 2 mps 591 mmHg 91%
    03:00 -7°C° 0.5 mm 1 mps 591 mmHg 93%
    04:00 -7°C° 0.5 mm 1 mps 591 mmHg 94%
    05:00 -7°C° 0.7 mm 1 mps 591 mmHg 95%
    06:00 -6°C° 0.7 mm 1 mps 591 mmHg 95%
    07:00 -6°C° 0.7 mm 1 mps 591 mmHg 95%
    08:00 -6°C° 0.9 mm 1 mps 592 mmHg 95%
    09:00 -6°C° 0.9 mm 1 mps 592 mmHg 95%
    10:00 -4°C° 0.9 mm 1 mps 592 mmHg 94%
    11:00 -4°C° 0.9 mm 1 mps 592 mmHg 94%
    12:00 -6°C° 0.9 mm 2 mps 592 mmHg 94%
    13:00 -6°C° 0.9 mm 2 mps 592 mmHg 94%
    14:00 -6°C° 0.9 mm 2 mps 592 mmHg 94%
    15:00 -6°C° 0.9 mm 2 mps 592 mmHg 95%
    16:00 -7°C° 0.9 mm 2 mps 592 mmHg 95%
    17:00 -7°C° 0.7 mm 2 mps 593 mmHg 95%
    18:00 -7°C° 0.7 mm 2 mps 593 mmHg 95%
    19:00 -8°C° 0.7 mm 2 mps 593 mmHg 95%
    20:00 -8°C° 0.3 mm 2 mps 593 mmHg 95%
    21:00 -8°C° 0.3 mm 2 mps 593 mmHg 95%
    22:00 -9°C° 0.3 mm 2 mps 594 mmHg 95%
    23:00 -9°C° 0.1 mm 2 mps 594 mmHg 94%

    21 December, Friday

    Time Temperature Precipitation Wind Pressure Humidity
    00:00 -10°C° 0.1 mm 2 mps 594 mmHg 94%
    01:00 -10°C° 0.1 mm 2 mps 594 mmHg 94%
    02:00 -12°C° 0 mm 2 mps 593 mmHg 93%
    03:00 -13°C° 0 mm 2 mps 593 mmHg 92%
    04:00 -14°C° 0 mm 2 mps 593 mmHg 91%
    05:00 -14°C° 0 mm 2 mps 593 mmHg 89%
    06:00 -14°C° 0 mm 2 mps 593 mmHg 87%
    07:00 -14°C° 0 mm 2 mps 593 mmHg 85%
    08:00 -13°C° 0 mm 2 mps 594 mmHg 83%
    09:00 -9°C° 0 mm 1 mps 594 mmHg 81%
    10:00 -8°C° 0 mm 1 mps 595 mmHg 78%
    11:00 -7°C° 0 mm 1 mps 595 mmHg 77%
    12:00 -4°C° 0 mm 1 mps 595 mmHg 75%
    13:00 -3°C° 0 mm 1 mps 595 mmHg 74%
    14:00 -4°C° 0 mm 1 mps 595 mmHg 75%
    15:00 -4°C° 0 mm 1 mps 594 mmHg 76%
    16:00 -6°C° 0 mm 1 mps 594 mmHg 76%
    17:00 -7°C° 0 mm 2 mps 594 mmHg 76%
    18:00 -7°C° 0 mm 2 mps 594 mmHg 75%
    19:00 -7°C° 0 mm 2 mps 594 mmHg 75%
    20:00 -7°C° 0.5 mm 2 mps 594 mmHg 78%
    21:00 -8°C° 0.5 mm 3 mps 594 mmHg 81%
    22:00 -7°C° 0.5 mm 3 mps 594 mmHg 85%
    23:00 -6°C° 0.3 mm 2 mps 594 mmHg 83%
    Show more